• In Österreich
  • Länderverzeichnis
  • Für 7 Tage
  • Wassertemperatur
  • Satellitenkarten
  • Wetterkarte
  • News
  • Widgets
  • user-avatar
    Anmelden

    Stündliche Wetter Kernave

    Heute, 19 Juli, Donnerstag

    Zeit Temperatur Niederschläge Wind Luftdruck Luftfeuchtigkeit
    00:00 +19°C° 0 mm 2 m/S 747 mmHg 91%
    01:00 +18°C° 0 mm 2 m/S 747 mmHg 92%
    02:00 +18°C° 0 mm 2 m/S 748 mmHg 93%
    03:00 +17°C° 0 mm 2 m/S 748 mmHg 94%
    04:00 +17°C° 0 mm 2 m/S 748 mmHg 94%
    05:00 +17°C° 0 mm 2 m/S 748 mmHg 95%
    06:00 +19°C° 0 mm 2 m/S 748 mmHg 90%
    07:00 +20°C° 0 mm 3 m/S 748 mmHg 86%
    08:00 +22°C° 0 mm 3 m/S 748 mmHg 81%
    09:00 +24°C° 0,2 mm 3 m/S 748 mmHg 76%
    10:00 +25°C° 0,2 mm 4 m/S 748 mmHg 71%
    11:00 +26°C° 0,2 mm 4 m/S 748 mmHg 66%
    12:00 +26°C° 0,3 mm 4 m/S 748 mmHg 66%
    13:00 +26°C° 0,3 mm 4 m/S 748 mmHg 67%
    14:00 +27°C° 0,3 mm 5 m/S 747 mmHg 68%
    15:00 +26°C° 0,5 mm 4 m/S 747 mmHg 72%
    16:00 +25°C° 0,5 mm 4 m/S 747 mmHg 77%
    17:00 +25°C° 0,5 mm 4 m/S 747 mmHg 82%
    18:00 +23°C° 0,5 mm 4 m/S 747 mmHg 86%
    19:00 +22°C° 0,5 mm 3 m/S 747 mmHg 90%
    20:00 +21°C° 0,5 mm 3 m/S 747 mmHg 94%
    21:00 +20°C° 0,2 mm 3 m/S 747 mmHg 95%
    22:00 +19°C° 0,2 mm 2 m/S 747 mmHg 96%
    23:00 +19°C° 0,2 mm 2 m/S 747 mmHg 97%

    Morgen, 20 Juli, Freitag

    Zeit Temperatur Niederschläge Wind Luftdruck Luftfeuchtigkeit
    00:00 +18°C° 0 mm 2 m/S 747 mmHg 97%
    01:00 +18°C° 0 mm 2 m/S 747 mmHg 97%
    02:00 +18°C° 0 mm 2 m/S 747 mmHg 98%
    03:00 +18°C° 0 mm 2 m/S 747 mmHg 98%
    04:00 +18°C° 0 mm 2 m/S 747 mmHg 98%
    05:00 +17°C° 0 mm 2 m/S 747 mmHg 98%
    06:00 +19°C° 0 mm 2 m/S 747 mmHg 96%
    07:00 +20°C° 0 mm 2 m/S 747 mmHg 93%
    08:00 +21°C° 0 mm 3 m/S 748 mmHg 90%
    09:00 +22°C° 0,5 mm 3 m/S 747 mmHg 87%
    10:00 +24°C° 0,5 mm 3 m/S 747 mmHg 83%
    11:00 +25°C° 0,5 mm 3 m/S 747 mmHg 80%
    12:00 +26°C° 1,1 mm 4 m/S 747 mmHg 79%
    13:00 +26°C° 1,1 mm 4 m/S 747 mmHg 77%
    14:00 +26°C° 1,1 mm 4 m/S 746 mmHg 76%
    15:00 +26°C° 0,7 mm 4 m/S 746 mmHg 76%
    16:00 +26°C° 0,7 mm 4 m/S 746 mmHg 76%
    17:00 +27°C° 0,7 mm 4 m/S 746 mmHg 76%
    18:00 +25°C° 0,5 mm 3 m/S 746 mmHg 80%
    19:00 +24°C° 0,5 mm 3 m/S 746 mmHg 84%
    20:00 +22°C° 0,5 mm 3 m/S 746 mmHg 88%
    21:00 +21°C° 0 mm 3 m/S 747 mmHg 91%
    22:00 +20°C° 0 mm 3 m/S 747 mmHg 93%
    23:00 +19°C° 0 mm 3 m/S 747 mmHg 95%

    übermorgen, 21 Juli, Samstag

    Zeit Temperatur Niederschläge Wind Luftdruck Luftfeuchtigkeit
    00:00 +19°C° 0 mm 3 m/S 747 mmHg 95%
    01:00 +18°C° 0 mm 3 m/S 747 mmHg 96%
    02:00 +18°C° 0 mm 3 m/S 747 mmHg 96%
    03:00 +18°C° 0 mm 3 m/S 747 mmHg 97%
    04:00 +17°C° 0 mm 3 m/S 747 mmHg 97%
    05:00 +17°C° 0 mm 3 m/S 747 mmHg 97%
    06:00 +18°C° 0 mm 3 m/S 747 mmHg 94%
    07:00 +19°C° 0 mm 3 m/S 747 mmHg 90%
    08:00 +20°C° 0 mm 3 m/S 747 mmHg 87%
    09:00 +22°C° 0 mm 3 m/S 747 mmHg 81%
    10:00 +24°C° 0 mm 3 m/S 747 mmHg 75%
    11:00 +26°C° 0 mm 4 m/S 747 mmHg 69%
    12:00 +26°C° 0 mm 4 m/S 747 mmHg 67%
    13:00 +27°C° 0 mm 4 m/S 747 mmHg 64%
    14:00 +27°C° 0 mm 5 m/S 747 mmHg 62%
    15:00 +27°C° 0 mm 4 m/S 747 mmHg 63%
    16:00 +27°C° 0 mm 4 m/S 747 mmHg 65%
    17:00 +27°C° 0 mm 4 m/S 747 mmHg 66%
    18:00 +25°C° 0 mm 4 m/S 747 mmHg 72%
    19:00 +24°C° 0 mm 3 m/S 747 mmHg 78%
    20:00 +22°C° 0 mm 3 m/S 747 mmHg 83%
    21:00 +21°C° 0 mm 3 m/S 747 mmHg 87%
    22:00 +20°C° 0 mm 3 m/S 747 mmHg 90%
    23:00 +19°C° 0 mm 2 m/S 747 mmHg 93%

    22 Juli, Sonntag

    Zeit Temperatur Niederschläge Wind Luftdruck Luftfeuchtigkeit
    00:00 +18°C° 0 mm 2 m/S 747 mmHg 93%
    01:00 +18°C° 0 mm 2 m/S 747 mmHg 94%
    02:00 +17°C° 0 mm 2 m/S 747 mmHg 94%
    03:00 +17°C° 0 mm 2 m/S 747 mmHg 94%
    04:00 +17°C° 0 mm 2 m/S 747 mmHg 94%
    05:00 +16°C° 0 mm 2 m/S 748 mmHg 94%
    06:00 +18°C° 0 mm 3 m/S 748 mmHg 89%
    07:00 +19°C° 0 mm 3 m/S 748 mmHg 83%
    08:00 +20°C° 0 mm 3 m/S 748 mmHg 78%
    09:00 +22°C° 0 mm 3 m/S 748 mmHg 73%
    10:00 +24°C° 0 mm 3 m/S 748 mmHg 68%
    11:00 +25°C° 0 mm 3 m/S 748 mmHg 63%
    12:00 +26°C° 0 mm 4 m/S 748 mmHg 61%
    13:00 +27°C° 0 mm 4 m/S 748 mmHg 59%
    14:00 +27°C° 0 mm 4 m/S 747 mmHg 57%
    15:00 +27°C° 0 mm 4 m/S 747 mmHg 58%
    16:00 +27°C° 0 mm 4 m/S 747 mmHg 60%
    17:00 +27°C° 0 mm 3 m/S 747 mmHg 61%
    18:00 +25°C° 0 mm 3 m/S 747 mmHg 67%
    19:00 +24°C° 0 mm 3 m/S 748 mmHg 73%
    20:00 +23°C° 0 mm 2 m/S 748 mmHg 79%
    21:00 +20°C° 0 mm 2 m/S 748 mmHg 81%
    22:00 +19°C° 0 mm 2 m/S 748 mmHg 83%
    23:00 +18°C° 0 mm 2 m/S 749 mmHg 85%

    23 Juli, Montag

    Zeit Temperatur Niederschläge Wind Luftdruck Luftfeuchtigkeit
    00:00 +17°C° 0 mm 2 m/S 749 mmHg 85%
    01:00 +17°C° 0 mm 2 m/S 749 mmHg 85%
    02:00 +16°C° 0 mm 2 m/S 749 mmHg 85%
    03:00 +16°C° 0 mm 2 m/S 749 mmHg 84%
    04:00 +15°C° 0 mm 2 m/S 749 mmHg 84%
    05:00 +15°C° 0 mm 1 m/S 749 mmHg 84%
    06:00 +18°C° 0 mm 1 m/S 750 mmHg 79%
    07:00 +18°C° 0 mm 2 m/S 750 mmHg 74%
    08:00 +20°C° 0 mm 2 m/S 750 mmHg 69%
    09:00 +21°C° 0 mm 2 m/S 750 mmHg 65%
    10:00 +24°C° 0 mm 2 m/S 750 mmHg 62%
    11:00 +25°C° 0 mm 3 m/S 750 mmHg 58%
    12:00 +26°C° 0 mm 3 m/S 750 mmHg 57%
    13:00 +26°C° 0 mm 3 m/S 750 mmHg 56%
    14:00 +27°C° 0 mm 3 m/S 750 mmHg 55%
    15:00 +27°C° 0 mm 3 m/S 750 mmHg 56%
    16:00 +27°C° 0 mm 3 m/S 750 mmHg 58%
    17:00 +27°C° 0 mm 3 m/S 750 mmHg 60%
    18:00 +25°C° 0 mm 3 m/S 750 mmHg 68%
    19:00 +24°C° 0 mm 3 m/S 750 mmHg 75%
    20:00 +21°C° 0 mm 2 m/S 750 mmHg 82%
    21:00 +20°C° 0 mm 2 m/S 750 mmHg 85%
    22:00 +19°C° 0 mm 3 m/S 751 mmHg 88%
    23:00 +18°C° 0 mm 3 m/S 751 mmHg 91%

    24 Juli, Dienstag

    Zeit Temperatur Niederschläge Wind Luftdruck Luftfeuchtigkeit
    00:00 +17°C° 0 mm 3 m/S 751 mmHg 92%
    01:00 +17°C° 0 mm 3 m/S 751 mmHg 92%
    02:00 +16°C° 0 mm 2 m/S 751 mmHg 93%
    03:00 +16°C° 0 mm 2 m/S 751 mmHg 95%
    04:00 +15°C° 0 mm 2 m/S 752 mmHg 96%
    05:00 +15°C° 0 mm 2 m/S 752 mmHg 97%
    06:00 +16°C° 0 mm 2 m/S 752 mmHg 91%
    07:00 +18°C° 0 mm 2 m/S 752 mmHg 86%
    08:00 +19°C° 0 mm 2 m/S 752 mmHg 81%
    09:00 +20°C° 0 mm 2 m/S 752 mmHg 75%
    10:00 +23°C° 0 mm 2 m/S 752 mmHg 69%
    11:00 +24°C° 0 mm 2 m/S 752 mmHg 64%
    12:00 +25°C° 0 mm 2 m/S 752 mmHg 61%
    13:00 +26°C° 0 mm 2 m/S 752 mmHg 59%
    14:00 +26°C° 0 mm 3 m/S 752 mmHg 56%
    15:00 +26°C° 0 mm 2 m/S 752 mmHg 58%
    16:00 +26°C° 0 mm 2 m/S 751 mmHg 59%
    17:00 +26°C° 0 mm 2 m/S 751 mmHg 61%
    18:00 +25°C° 0 mm 2 m/S 752 mmHg 68%
    19:00 +24°C° 0 mm 1 m/S 752 mmHg 74%
    20:00 +22°C° 0 mm 1 m/S 752 mmHg 81%
    21:00 +21°C° 0 mm 1 m/S 752 mmHg 84%
    22:00 +20°C° 0 mm 1 m/S 752 mmHg 87%
    23:00 +19°C° 0 mm 1 m/S 753 mmHg 91%
    Mehr zeigen